Preview of NWS' New Version of Forecast
This preview is not operational and should not be used for support decisions.

Regional Weather Roundup (RWR)

Issued by National Weather Service (NWS)

                            
000
ASUS44 KMEG 252100
RWRTN 
TENNESSEE HOURLY STATE WEATHER ROUNDUP
NATIONAL WEATHER SERVICE MEMPHIS TN
400 PM CDT SUN AUG 25 2019

TNZ002-004-019-021-049-052-054-088>092-252200-
WEST TENNESSEE
  
CITY           SKY/WX    TMP DP  RH WIND       PRES   REMARKS
MEMPHIS INTL   FAIR      77  75  93 CALM      29.89F                  
NWS MEMPHIS      N/A     77 N/A N/A MISG        N/A                   
JACKSON        FAIR      85  74  69 S6        29.89F HX  92           
DYERSBURG      TSTM      73  72  96 NW7       29.91R                  
HUNTINGDON     MOSUNNY   84  77  79 CALM      29.88F HX  94           
LEXINGTON      SUNNY     79  75  89 CALM      29.89F                  
SELMER         SUNNY     82  73  74 CALM      29.89F                  
$$

TNZ008-025-027-028-033-062-065-066-252200-
NORTH MIDDLE TENNESSEE
  
CITY           SKY/WX    TMP DP  RH WIND       PRES   REMARKS
NASHVILLE      CLOUDY    80  70  71 S8        29.97F                  
CLARKSVILLE    LGT RAIN  75  73  93 SE8       29.94S                  
SMYRNA         CLOUDY    78  71  79 S7        29.97                   
MURFREESBORO   CLOUDY    77  72  83 SE7       29.95F                  
COOKEVILLE     CLOUDY    79  68  69 SE7       30.00S                  
LIVINGSTON     CLOUDY    79  68  69 S6        30.00F                  
GALLATIN       CLOUDY    79  72  78 VRB5      29.99S                  
CROSSVILLE     CLOUDY    72  65  78 S6        30.07S                  
$$

TNZ061-075-076-078-094-096-097-252200-
SOUTH MIDDLE TENNESSEE
  
CITY           SKY/WX    TMP DP  RH WIND       PRES   REMARKS
LEWISBURG      CLOUDY    77  70  78 S8        29.96F                  
FAYETTEVILLE   CLOUDY    77  70  78 SE10      29.97F                  
WINCHESTER     CLOUDY    75  68  78 S8        29.99F                  
$$

TNZ017-018-042-046-047-252200-
NORTHEAST TENNESSEE
  
CITY           SKY/WX    TMP DP  RH WIND       PRES   REMARKS
TRI CITIES     PTSUNNY   76  62  62 E5        30.08F                  
$$

TNZ012-013-036-069-073-074-252200-
CENTRAL EAST TENNESSEE
  
CITY           SKY/WX    TMP DP  RH WIND       PRES   REMARKS
KNOXVILLE      CLOUDY    79  67  66 N8        30.01F                  
OAK RIDGE      CLOUDY    78  66  66 CALM      30.03F                  
MORRISTOWN     PTSUNNY   79  68  69 NE8       30.03F                  
$$

TNZ083-085-099-252200-
SOUTHEAST TENNESSEE
  
CITY           SKY/WX    TMP DP  RH WIND       PRES   REMARKS
CHATTANOOGA    CLOUDY    76  68  76 S6        30.02F                  
$$

SKY/WX REPORTED AS FAIR MEANS FEW OR NO CLOUDS BELOW
12 THOUSAND FEET.